#timestamp,LO_Frequency,Hit,StdDev 
1632114015.7,286047001.2,N
1632114035.5,286046998.4,N
1632114055.4,286047000.7,N
1632114075.2,286047000.7,N
1632114095.1,286047000.5,N
1632114096.0,286047000.5,N
1632114115.8,286047000.5,N
1632114135.6,286047000.3,N
1632114155.5,286047000.6,N
1632114175.3,286047001.2,N
1632114195.2,286046999.1,N
1632114215.9,286046996.8,N
1632114235.7,286046996.5,N
1632114255.6,286046996.5,N
1632114275.4,286046996.9,N
1632114295.2,286046996.7,N
1632114315.1,286046997.5,N
1632114316.0,286046997.5,N
1632114335.8,286046996.7,N
1632114355.7,286046997.1,N
1632114375.5,286046997.2,N
1632114395.3,286046997.2,N
1632114415.2,286046997.6,N
1632114435.0,286046996.9,N
1632114435.9,286046996.9,N
1632114455.7,286046997.2,N
1632114475.6,286046996.9,N
1632114495.4,286046998.2,N
1632114515.3,286046998.3,N
1632114535.1,286046996.7,N
1632114555.8,286046996.7,N
1632114575.7,286046996.9,N
1632114595.5,286046999.2,N
1632114615.4,286046999.4,N
1632114635.2,286046999.0,N
1632114655.0,286046999.3,N
1632114655.9,286046999.3,N
1632114675.8,286046997.0,N
1632114695.6,286046998.2,N
1632114715.5,286046998.6,N
1632114735.3,286046998.9,N
1632114755.1,286046998.6,N
1632114775.9,286046999.5,N
1632114795.7,286046999.3,N
1632114815.5,286046998.3,N
1632114835.4,286047000.7,N
1632114855.3,286046999.0,N
1632114875.2,286046998.9,N
1632114895.0,286046998.6,N
1632114895.9,286046998.6,N
1632114915.8,286046998.8,N
1632114935.6,286046998.5,N
1632114955.4,286047000.5,N
1632114975.3,286046998.2,N
1632114995.1,286047001.0,N
1632115015.9,286046999.1,N
1632115035.7,286046996.5,Y
1632115055.5,286047000.8,P
1632115075.4,286046998.2,N
1632115095.2,286046998.7,N
1632115115.0,286046999.2,N
1632115115.9,286046999.2,N
1632115135.8,286046999.3,N
1632115155.6,286047000.8,N
1632115175.5,286047000.5,N
1632115195.3,286047001.1,N
1632115215.1,286046998.8,N
1632115235.9,286046997.0,Y
1632115255.7,286046997.1,P
1632115275.6,286046996.8,N
1632115295.4,286046997.2,N
1632115315.2,286046996.8,N
1632115335.1,286046999.1,N
1632115336.0,286046999.1,N
1632115355.8,286046996.6,N
1632115375.7,286046998.3,N
1632115395.5,286047001.1,N
1632115415.3,286047001.2,N
1632115435.2,286046998.1,N
1632115455.0,286046998.7,N
1632115455.9,286046998.7,N
1632115475.8,286046996.5,N
1632115495.6,286046999.0,N
1632115515.4,286046999.1,N
1632115535.3,286046999.0,N
1632115555.1,286046999.0,N
1632115575.9,286046998.8,N
1632115595.7,286046998.2,N
1632115615.5,286046999.6,N
1632115635.4,286046999.6,N
1632115655.2,286046998.6,N
1632115675.1,286046998.2,N
1632115676.0,286046998.2,N
1632115695.8,286046998.5,N
1632115715.6,286046998.2,N
1632115735.5,286046998.6,N
1632115755.3,286046998.6,N
1632115775.1,286046998.9,N
1632115795.9,286046999.5,N
1632115815.7,286046996.6,Y
1632115835.6,286046998.2,P
1632115855.4,286046999.4,P
1632115875.2,286047001.1,N
1632115895.1,286047000.4,N
1632115896.0,286047000.4,N
1632115915.8,286047000.2,N
1632115935.7,286047000.2,N
1632115955.5,286047002.2,N
1632115975.3,286047000.1,N
1632115995.2,286047002.8,N
1632116015.0,286047002.1,N
1632116015.9,286047002.1,N
1632116035.7,286047002.8,N
1632116055.6,286047000.4,N
1632116075.4,286047000.7,N
1632116095.3,286047001.1,N
1632116115.1,286047000.6,N
1632116116.0,286047000.6,N
1632116135.8,286047000.7,N
1632116155.7,286046998.9,N
1632116175.5,286046999.6,N
1632116195.3,286046996.9,N
1632116215.2,286046999.1,N
1632116235.0,286046997.8,N
1632116235.9,286046997.8,N
1632116255.8,286046996.7,N
1632116275.6,286046998.4,N
1632116295.4,286046999.6,N
1632116315.3,286046998.8,N
1632116335.1,286047000.6,N
1632116355.9,286046998.7,N
1632116375.7,286046999.4,N
1632116395.5,286046999.2,N
1632116415.4,286046996.7,N
1632116435.2,286046997.4,N
1632116455.0,286046997.1,N
1632116455.9,286046997.1,N
1632116475.8,286046996.7,N
1632116495.6,286046998.0,N
1632116515.5,286046997.3,N
1632116535.3,286046998.8,N
1632116555.1,286046999.1,N
1632116575.9,286046998.2,N
1632116595.7,286047000.6,N
1632116615.5,286047002.3,N
1632116635.4,286047002.1,N
1632116655.2,286046999.7,N
1632116675.1,286047000.9,N
1632116676.0,286047000.9,N
1632116695.8,286047000.4,N
1632116715.6,286047000.4,N
1632116735.5,286046998.2,N
1632116755.3,286046998.2,N
1632116775.2,286046999.6,N
1632116795.9,286046998.4,N
1632116815.7,286046998.8,N
1632116835.6,286046999.5,N
1632116855.4,286046996.8,N
1632116875.3,286046996.6,N
1632116895.1,286046996.9,N
1632116896.0,286046996.9,N
1632116915.8,286046999.1,N
1632116935.7,286046999.5,N
1632116955.5,286046998.2,N
1632116975.4,286047001.2,N
1632116995.2,286047002.2,N
1632117015.0,286047000.0,N
1632117015.9,286047000.0,N
1632117035.8,286047000.2,N
1632117055.6,286047001.0,N
1632117075.4,286046999.9,N
1632117095.3,286047000.2,N
1632117115.1,286047000.6,N
1632117135.9,286047000.3,N
1632117155.7,286047000.8,N
1632117175.5,286047000.8,N
1632117195.4,286047001.2,N
1632117215.2,286047000.8,N
1632117235.1,286047000.0,N
1632117236.0,286047000.0,N
1632117255.8,286047002.2,N
1632117275.6,286047001.5,N
1632117295.5,286047001.4,N
1632117315.3,286047002.1,N
1632117335.1,286047002.5,N
1632117355.9,286047001.9,N
1632117375.7,286047001.9,N
1632117395.6,286047001.7,N
1632117415.4,286047001.5,N
1632117435.2,286047004.2,Y
1632117455.1,286047001.5,P
1632117456.0,286047001.5,P
1632117475.8,286047001.6,P
1632117495.7,286047002.5,Y
1632117515.5,286046998.3,P
1632117535.3,286046999.3,N
1632117555.2,286046997.5,N
1632117575.0,286046997.5,N
1632117575.9,286046997.5,N
1632117595.8,286046997.8,N
